User: anonymous   Login
Location: Unspecified
(0.0000°N, 0.0000°E)
Time: 00:12:05
(UTC+00:00)
Language:

SDS-1 - Orbit

View from above orbital plane
View from above orbital plane
View from above satellite
View from above satellite

Ground track
Ground track

The orbit data is extracted from the following two-line orbital elements,

1 33497U 09002F   18112.44950282 +.00000082 +00000-0 +22124-4 0  9999
2 33497 098.3179 259.8844 0002092 028.3575 331.7744 14.70446132495625
Epoch (UTC): 22 April 2018 10:47:17
Eccentricity: 0.0002092
inclination: 98.3179°
perigee height: 658 km
apogee height: 661 km
right ascension of ascending node: 259.8844°
argument of perigee: 28.3575°
revolutions per day: 14.70446132
mean anomaly at epoch: 331.7744°
orbit number at epoch: 49562

The dashed part of the orbit path shows where the satellite is in the earth's shadow,  

DLR